Hlavní strana
METAR-TAF:

METAR-TAF

Letiště :

Paris, Tennessee, Spojené státy americké

zeměpisná šířka: 36-20-18N, zeměpisná délka: 088-22-58W, výška: 177 m

Aktuální stav počasí

Zpráva byla vytvořena před 12 minutami, v 17:55 UTC
Jihovýchodní vítr 5 kt
Teplota 7°C
Vlhkost vzduchu 81%
Tlak 1019 hPa
Viditelnost: 16.1 km
Zataženo ve výšce 1600 ft

METAR: KPHT 181755Z AUTO 14005KT 10SM OVC016 07/04 A3009 RMK A01

Čas: 12:07 (18:07 UTC)


TAF: chybějící

Stav a předpovědi počasí z více než 4 000 letišť (zprávy METAR a TAF).

Červené a žluté tečky na mapě představují dostupné meteorologické stanice.

Když kurzor umístíte na tečku, zobrazí se název stanice.

Pak kliknutím zobrazíte stav a předpověď počasí.

Chcete-li změnit mapu, kliknutím na zelené tlačítko se znaménkem +mapu přiblížíte, kliknutím na zelené tlačítko se znaménkem – mapu oddálíte a kliknutím na zelené šipky přejdete na sousední mapy.


METAR-TAF: